GFSMW_925_temp_057.txt.gz
Temp
17 17 17 17 17 17 17 17 17 17 16 15 14 15 15 15 15 14 14 14 14 14 14 14 13 13 13 12 11 11 10 9 8 8 8 9 8 7 8 8 8 7 7
16 17 17 18 17 17 17 17 17 16 16 16 16 15 15 14 14 14 14 14 14 14 14 14 13 13 12 11 10 10 9 9 8 8 6 4 6 7 8 7 7 6 6
17 18 17 17 17 16 17 17 17 17 16 16 15 15 14 14 13 13 13 13 14 14 14 13 13 12 11 11 10 9 9 8 8 7 7 4 3 4 6 6 6 6 5
19 19 18 16 16 16 17 17 16 16 16 16 15 16 15 14 14 14 14 13 13 13 13 13 12 11 11 10 9 9 8 8 8 7 7 7 6 2 2 5 5 5 5
19 18 18 17 16 15 15 15 14 14 15 15 15 15 15 15 14 14 13 13 13 13 12 12 11 11 10 9 9 8 8 7 7 6 6 6 5 5 2 0 3 4 4
18 18 18 17 16 15 14 14 15 16 16 15 15 15 15 14 14 13 13 13 12 11 11 11 10 9 9 9 8 8 7 7 6 6 6 5 5 4 3 -0 1 2 3
16 16 15 16 14 14 14 13 14 14 15 15 15 15 15 15 14 14 13 12 11 11 10 9 8 8 8 8 8 8 7 6 6 6 6 5 4 4 4 3 2 1 2
16 15 15 15 15 14 14 14 14 14 15 15 15 15 15 15 14 14 13 11 10 9 8 7 7 8 8 8 7 7 6 6 5 5 4 4 4 4 4 3 2 -1 -1
16 15 15 15 14 14 14 14 14 14 14 15 15 15 15 14 14 12 12 10 9 8 7 7 7 7 7 7 6 6 6 5 4 4 4 3 3 3 3 2 1 0 0
15 14 15 15 14 15 15 14 14 15 16 16 15 15 14 14 13 12 10 9 8 7 7 6 5 6 7 7 6 5 5 4 4 4 3 3 2 2 2 2 1 0 -1
14 14 15 15 15 15 16 16 15 16 16 16 15 15 13 12 11 10 9 8 8 7 6 4 5 6 7 6 5 5 4 4 4 3 3 2 2 1 1 1 1 0 -0
15 15 15 15 15 16 16 16 16 15 14 14 12 11 10 10 9 8 8 7 7 7 6 6 6 7 6 5 5 5 4 3 3 3 2 2 1 1 1 1 0 -1 -1
15 14 14 14 15 15 15 15 14 13 13 12 11 10 9 9 9 9 7 7 7 6 6 7 7 7 6 5 5 4 4 3 2 2 1 1 1 1 1 -0 -1 -1 -2
15 14 14 14 15 15 13 12 11 11 11 11 10 9 9 9 9 8 7 7 7 7 7 7 6 5 5 5 4 3 3 2 2 1 1 1 1 1 0 -0 -1 -1 -2
15 14 13 12 13 13 12 11 11 10 10 9 9 9 8 8 8 7 7 7 7 6 7 6 5 5 5 4 4 3 2 2 1 1 0 -0 -0 -0 -1 -1 -1 -2 -3
17 14 13 12 12 11 10 9 9 9 9 8 8 8 8 7 7 7 7 6 6 6 6 5 5 5 5 4 3 3 2 1 1 0 -0 -0 -1 -1 -1 -1 -2 -3 -3
13 12 11 11 10 9 9 9 8 8 8 8 8 8 7 7 6 7 6 6 4 4 5 5 5 5 4 4 3 2 1 1 0 -0 -1 -1 -1 -1 -2 -2 -3 -4 -4
9 9 8 8 8 8 8 8 8 8 7 7 7 7 7 6 6 5 5 4 4 5 5 5 5 4 4 3 2 2 1 0 -0 -1 -1 -2 -2 -2 -2 -3 -3 -4 -4
6 5 7 7 7 7 7 7 7 6 6 6 6 6 6 6 5 4 5 4 4 5 5 4 4 4 3 3 2 1 0 -0 -1 -1 -2 -3 -3 -3 -3 -3 -4 -5 -5
6 5 5 5 6 6 7 6 6 6 6 6 6 5 6 5 5 4 4 4 4 4 4 3 3 3 3 3 2 1 0 -1 -1 -2 -2 -3 -3 -3 -3 -4 -4 -5 -5
4 5 5 5 5 7 7 6 7 6 6 6 6 5 5 4 4 4 4 3 3 3 3 3 3 3 2 2 2 1 -0 -1 -2 -3 -2 -2 -2 -3 -4 -4 -5 -5 -5
5 5 5 5 6 6 7 5 5 5 5 5 4 4 4 4 3 3 3 3 3 3 2 2 2 2 2 2 1 1 0 -0 -3 -3 -2 -2 -2 -3 -4 -5 -5 -5 -6
5 5 4 4 5 5 5 5 4 4 4 4 4 4 4 4 4 3 3 3 3 2 2 2 1 1 2 2 2 1 0 -0 -2 -3 -2 -1 -2 -3 -4 -4 -5 -5 -6
4 4 4 4 4 4 4 3 3 4 4 3 3 2 2 2 2 2 2 1 1 1 1 0 -1 -0 0 1 1 1 0 -0 -1 -1 -2 -3 -3 -3 -4 -5 -5 -5 -5
4 4 4 3 2 2 2 2 2 2 2 1 1 1 1 0 0 -0 -0 -0 -0 -1 -1 -1 -1 -2 -2 -1 1 1 0 -1 -1 -1 -2 -4 -4 -4 -5 -5 -5 -5 -5
3 2 1 1 1 0 -0 -0 -0 -0 -0 -1 -1 -2 -2 -2 -2 -2 -2 -2 -2 -2 -2 -2 -2 -1 -1 -1 -1 -2 -2 -2 -2 -3 -4 -5 -4 -5 -5 -5 -6 -5 -5

GFSMW_925_temp_063.txt.gz
Temp
18 17 16 16 16 15 15 16 16 16 15 15 14 14 14 14 14 14 15 14 14 14 14 14 13 13 13 12 12 11 10 9 9 9 8 7 7 6 7 7 7 7 6
18 17 16 16 15 16 16 16 16 16 16 16 16 14 14 14 14 14 14 13 14 14 14 14 13 13 12 11 11 11 9 8 8 9 8 11 9 7 7 6 6 6 6
19 18 16 16 16 15 15 16 16 17 16 15 14 14 14 13 13 12 13 13 14 13 13 13 13 12 12 11 11 10 9 9 7 7 9 10 10 8 7 6 6 6 6
18 19 18 17 16 15 15 15 16 15 15 15 14 14 14 13 12 12 13 13 13 13 13 13 12 12 12 11 10 9 9 8 8 6 7 7 7 9 9 7 6 5 5
20 19 19 18 16 15 15 16 16 15 15 15 14 14 13 13 13 13 13 12 12 12 12 12 12 11 11 10 9 9 8 7 6 7 6 6 6 5 6 8 7 6 5
20 20 19 18 17 15 14 15 14 14 13 14 14 14 13 12 13 13 12 11 12 12 12 12 11 11 10 9 8 8 7 6 6 6 5 6 7 7 6 6 6 6 5
20 20 19 18 17 15 15 15 14 14 14 14 14 14 13 13 14 13 12 11 11 11 11 11 10 9 9 8 7 7 7 6 6 6 5 4 4 4 4 4 5 5 5
20 20 20 19 17 16 15 15 14 14 13 14 15 14 14 13 14 14 13 11 12 11 11 10 9 9 7 8 7 7 6 6 6 5 5 4 4 4 4 4 4 5 5
19 19 19 18 17 16 15 16 14 14 13 13 13 12 13 12 13 13 12 11 11 10 10 9 7 7 7 7 7 6 6 6 5 5 4 3 4 3 3 3 3 3 4
17 18 18 17 17 16 16 14 14 15 14 13 12 12 12 12 13 13 12 11 10 10 8 8 8 8 6 6 6 6 6 5 5 4 3 3 3 3 2 2 2 2 3
18 17 17 17 16 15 15 15 14 15 14 13 12 12 12 12 12 11 10 9 9 9 8 7 7 7 6 6 6 5 5 5 4 4 3 3 2 2 2 2 2 2 2
19 18 17 16 15 15 15 15 14 14 13 12 12 12 11 11 10 8 8 7 8 7 7 7 6 6 6 5 5 5 5 4 3 3 2 2 2 2 1 1 1 1 1
18 17 16 16 16 15 15 14 13 13 12 12 11 10 9 8 7 6 6 5 6 6 6 5 5 5 5 5 6 5 5 4 3 3 2 2 2 1 1 1 1 1 0
19 18 17 16 15 14 13 13 11 11 11 10 8 7 6 6 6 6 7 7 6 5 5 4 5 5 5 5 5 5 4 4 3 2 2 1 1 1 1 1 1 0 -0
18 17 16 15 14 13 11 10 9 9 8 8 7 6 6 6 7 6 5 5 5 5 5 5 5 4 4 4 4 4 4 3 2 2 2 1 1 1 -0 -0 0 -0 -0
14 15 15 14 12 11 10 9 9 8 8 8 6 7 7 7 6 5 5 5 4 4 4 5 4 3 3 4 4 4 3 3 2 2 2 1 1 0 -0 -1 -1 -1 -1
11 11 11 11 10 9 8 8 7 7 7 7 6 5 6 5 4 4 4 4 4 4 4 3 3 3 4 4 4 4 3 2 2 2 1 1 -0 0 -1 -1 -1 -2 -2
10 9 8 7 7 7 7 7 7 6 6 5 5 5 4 4 4 4 4 4 4 4 3 3 4 4 4 4 4 3 3 2 1 1 1 1 0 -1 -1 -2 -2 -2 -2
7 6 6 6 6 6 6 6 6 5 5 5 5 5 5 4 5 5 4 4 4 4 3 3 3 3 3 3 3 3 2 1 1 1 0 -0 -0 -1 -1 -2 -3 -3 -3
6 6 5 6 6 6 6 6 5 5 5 5 5 5 5 5 4 4 4 3 3 3 3 2 2 2 2 2 2 2 1 0 0 0 -0 -1 0 0 -1 -2 -3 -3 -3
5 5 5 5 5 6 6 5 5 5 4 4 5 5 4 3 3 3 3 2 1 2 2 1 1 1 1 1 1 0 -0 -1 -1 -0 -0 -1 -0 1 -1 -2 -3 -3 -3
5 5 5 5 4 5 5 5 4 3 4 4 3 2 2 2 2 2 1 0 -0 -0 -1 -1 -1 -1 -2 -2 -2 -2 -2 -2 -2 -2 -2 -1 -1 -1 -1 -2 -3 -3 -3
5 4 4 3 3 3 4 3 2 3 3 2 1 1 1 0 -0 -1 -1 -1 -1 -2 -2 -2 -2 -2 -3 -3 -3 -3 -3 -3 -3 -3 -3 -3 -2 -3 -2 -2 -3 -3 -4
4 3 3 2 1 0 0 0 1 1 1 -0 -1 -1 -2 -2 -2 -2 -3 -3 -3 -3 -3 -3 -3 -4 -4 -4 -4 -5 -5 -4 -4 -3 -3 -3 -3 -3 -3 -4 -3 -4 -4
3 2 1 0 -1 -1 -2 -1 -1 -0 -1 -2 -3 -3 -4 -4 -4 -4 -5 -5 -5 -5 -5 -4 -4 -5 -6 -6 -7 -6 -6 -5 -5 -5 -4 -3 -3 -3 -3 -4 -4 -4 -4
2 1 -0 -1 -3 -3 -3 -3 -2 -2 -3 -3 -4 -5 -5 -5 -5 -5 -5 -6 -6 -6 -6 -7 -7 -7 -8 -8 -8 -7 -8 -6 -4 -4 -3 -3 -2 -3 -3 -3 -4 -4 -4

GFSMW_925_temp_069.txt.gz
Temp
23 21 21 20 20 18 18 19 18 17 17 18 18 19 19 19 19 18 16 15 15 14 15 16 15 15 16 16 15 14 14 15 14 15 15 15 13 13 13 12 12 12 12
23 22 21 21 20 19 20 20 20 19 19 19 19 20 19 19 19 17 15 15 15 15 15 16 15 15 16 15 14 14 15 15 14 15 15 16 15 13 12 12 12 12 11
25 24 22 22 21 21 20 21 21 21 20 20 20 19 19 19 19 18 16 15 15 15 15 16 15 15 15 15 14 14 14 15 13 12 13 14 14 14 14 13 12 11 11
26 25 24 23 22 22 22 21 21 21 21 20 20 19 20 20 20 19 16 15 15 14 14 15 15 15 15 14 14 14 14 14 14 12 11 11 11 13 13 14 13 11 10
27 27 25 24 23 22 22 21 21 22 21 20 20 20 20 20 20 19 16 15 14 14 14 14 14 14 14 14 14 14 13 12 12 11 11 10 11 11 11 12 13 13 12
28 28 27 25 24 23 22 21 21 21 21 20 20 20 19 20 21 19 17 16 15 13 12 12 13 13 13 14 13 13 12 11 10 10 9 10 11 12 12 12 12 12 11
29 28 28 27 26 24 22 22 21 22 21 21 20 19 19 20 20 18 17 16 14 12 12 12 13 13 13 13 13 11 10 9 8 8 8 9 10 10 10 10 10 10 10
29 29 29 28 27 26 24 22 22 22 22 20 20 19 19 19 18 17 16 15 14 13 12 12 12 12 12 12 11 9 8 7 7 7 7 8 10 10 9 9 9 9 9
29 30 29 28 27 26 25 23 22 22 22 21 20 19 19 18 17 16 15 14 14 13 12 12 11 11 11 11 8 8 7 7 6 6 6 7 8 9 9 8 8 8 8
28 29 29 29 28 27 26 24 22 23 22 21 19 18 18 16 15 14 14 13 12 11 11 11 10 9 10 8 7 7 6 5 5 5 6 8 8 8 8 8 8 8 8
28 28 28 28 28 27 26 24 23 22 23 22 20 19 18 16 15 14 13 12 11 10 10 9 8 8 8 6 5 4 4 5 5 4 7 7 8 7 8 7 7 7 7
29 28 27 26 26 25 25 24 23 22 22 22 21 18 17 14 14 13 12 11 10 10 9 8 7 7 6 5 4 5 5 5 4 6 7 8 7 7 7 7 7 6 6
29 28 27 26 25 24 24 23 22 22 22 21 18 14 13 12 11 10 10 9 9 9 8 8 6 5 5 5 5 5 5 5 6 7 7 7 7 7 7 7 6 6 6
29 29 28 27 25 24 23 22 20 18 16 13 11 11 10 10 9 8 8 7 7 6 6 5 5 5 5 5 5 5 5 6 7 7 7 7 7 7 7 6 6 6 6
28 28 28 26 25 23 20 15 13 11 11 10 9 8 7 7 6 6 6 6 6 5 5 5 5 5 5 5 5 6 6 6 7 7 7 7 7 6 6 5 5 5 5
26 26 26 25 23 20 18 13 11 10 9 8 8 7 6 5 5 5 5 5 5 5 5 5 5 5 4 5 5 4 5 6 6 7 7 7 7 6 6 5 4 3 3
22 23 23 22 20 18 15 13 10 9 8 7 7 7 7 6 5 5 5 5 5 5 5 5 4 5 5 6 5 4 4 4 5 5 6 6 6 6 6 6 5 4 2
20 20 20 18 17 16 14 12 11 10 9 9 8 7 6 5 5 5 5 5 5 5 6 6 7 7 7 6 4 4 3 4 4 5 5 5 5 5 5 5 4 4 2
19 18 17 17 16 15 14 14 13 12 10 9 8 7 7 5 5 5 4 5 5 7 7 7 6 6 6 4 3 2 2 2 3 3 3 3 3 3 3 2 1 2 2
17 17 16 16 15 14 13 13 12 11 9 8 7 6 6 6 6 6 7 7 7 7 6 6 5 5 4 2 1 0 -0 -0 0 0 1 0 0 0 0 -0 -0 0 0
16 16 15 15 14 13 12 12 11 10 8 8 7 7 7 8 8 7 7 6 6 5 4 3 3 3 2 1 -1 -2 -2 -2 -3 -3 -2 -2 -2 -2 -2 -2 -2 -2 -2
15 15 15 14 13 12 12 12 11 9 8 8 7 7 7 6 6 6 6 5 5 4 4 2 2 2 1 0 -1 -3 -4 -4 -4 -4 -4 -3 -4 -5 -4 -4 -4 -3 -3
15 14 14 13 12 12 12 11 9 8 7 7 7 6 5 5 5 5 5 5 4 3 3 2 1 1 0 -0 -2 -4 -5 -5 -5 -5 -5 -5 -5 -5 -4 -2 -1 -2 -3
14 13 13 12 11 11 10 9 8 7 7 6 5 5 5 4 4 4 3 3 2 1 1 1 0 -1 -2 -2 -4 -6 -6 -6 -6 -6 -6 -6 -5 -3 -3 -2 -1 -2 -2
13 12 11 10 9 8 7 7 6 6 5 5 4 4 3 3 2 2 1 -0 -2 -3 -2 -2 -3 -4 -4 -5 -8 -8 -8 -8 -8 -8 -7 -4 -4 -4 -4 -3 -2 -1 -1
11 10 9 8 7 6 5 5 5 5 4 3 3 1 1 1 2 1 -0 -3 -3 -4 -5 -6 -7 -7 -8 -9 -10 -9 -9 -9 -8 -7 -5 -5 -6 -6 -6 -5 -4 -4 -2

GFSMW_925_temp_072.txt.gz
Temp
22 20 19 16 14 13 13 13 13 14 14 15 15 17 17 18 18 18 17 17 16 16 15 15 16 16 15 15 15 15 16 15 15 15 15 15 14 14 13 13 13 12 12
23 22 20 18 17 16 15 14 15 16 15 16 16 17 18 17 18 18 17 16 15 16 15 15 16 15 15 15 15 15 15 15 14 14 15 12 13 13 13 12 12 12 12
22 21 21 19 17 17 17 18 17 17 17 17 19 19 19 19 19 18 17 17 16 16 15 15 16 15 15 16 15 14 14 14 14 13 13 11 11 13 14 13 12 12 12
23 22 21 20 19 18 19 19 20 19 19 19 20 20 19 19 19 18 17 16 16 16 16 15 16 15 15 15 15 14 14 15 14 12 12 12 11 10 9 13 12 12 11
23 23 23 21 20 20 20 20 21 21 21 21 20 20 20 19 20 20 17 16 16 15 15 15 15 15 15 15 14 14 14 14 13 13 11 11 10 10 9 8 11 12 12
24 25 24 23 22 21 21 21 21 21 22 20 21 20 19 20 20 19 18 16 16 15 14 14 14 14 14 14 14 13 14 13 12 12 11 10 10 11 11 8 10 10 11
26 25 25 24 24 22 22 22 21 21 22 20 20 20 20 20 20 20 18 16 15 14 14 14 14 13 13 13 13 12 12 12 11 10 9 9 9 9 10 10 9 9 10
28 27 26 25 25 24 22 22 21 21 22 22 20 20 20 19 19 19 18 16 15 14 14 13 12 12 13 12 11 10 10 10 9 8 8 7 7 7 9 9 9 6 8
28 28 28 27 26 25 23 22 22 21 22 22 21 20 19 19 19 19 18 16 16 14 14 13 12 12 11 11 10 9 9 8 8 7 6 6 7 7 8 9 9 8 2
28 28 29 28 27 26 24 23 22 22 22 22 21 20 20 19 19 18 17 16 15 14 13 12 11 11 11 10 8 7 6 7 6 5 5 6 6 7 8 8 8 8 7
28 28 28 29 28 27 26 23 23 22 23 22 21 20 19 19 18 16 14 14 14 13 12 11 10 10 9 7 6 7 7 6 5 5 5 6 6 8 8 8 8 7 7
29 28 28 28 28 28 27 25 23 23 23 23 22 20 19 18 16 15 14 13 12 11 11 10 10 9 8 8 8 7 6 5 5 5 5 6 7 7 7 7 7 7 7
28 28 27 26 26 26 26 26 24 23 23 22 21 18 15 15 14 13 13 12 11 10 9 8 8 7 7 6 6 6 6 5 5 5 6 6 7 7 7 7 7 7 6
28 28 27 26 26 25 25 24 21 19 17 15 13 12 12 12 12 11 10 9 9 8 8 7 7 7 6 6 6 5 5 5 5 6 6 7 7 7 7 7 6 6 6
29 28 28 26 25 23 17 15 14 13 12 10 9 9 9 10 9 8 8 7 7 7 7 6 6 6 6 5 5 5 5 6 6 7 7 7 7 7 7 7 6 6 5
26 27 28 25 23 17 14 12 11 10 9 8 7 7 7 7 6 6 6 6 6 6 6 5 5 5 5 5 5 5 5 5 5 5 6 6 6 6 6 6 6 6 5
24 24 25 22 19 15 13 11 9 9 8 8 7 6 6 6 5 5 5 5 5 5 5 5 5 5 5 5 5 4 4 4 4 4 4 5 5 5 5 5 4 3 4
23 23 22 20 16 13 12 10 9 8 8 7 7 6 6 5 5 5 5 5 5 6 6 6 6 6 5 5 4 4 3 3 3 3 3 3 3 2 2 1 1 0 0
21 21 20 19 15 13 11 10 10 9 9 8 7 6 6 5 5 5 5 6 6 6 6 7 7 6 4 3 3 2 2 1 1 0 0 0 -0 -0 -1 -1 -2 -2 -2
20 19 18 17 16 15 13 12 11 10 9 8 8 7 6 5 6 6 6 6 6 7 7 6 6 5 3 2 2 1 -0 -1 -2 -2 -2 -2 -2 -2 -3 -3 -4 -4 -4
19 18 17 16 15 15 14 13 11 10 9 8 7 6 7 7 7 7 7 7 7 6 5 4 3 3 2 1 0 -1 -2 -3 -4 -4 -4 -4 -4 -4 -4 -5 -5 -5 -5
18 17 16 15 14 14 13 12 11 9 9 8 8 7 8 8 7 7 6 6 5 4 4 3 2 2 1 0 -1 -3 -3 -4 -5 -5 -5 -5 -6 -6 -4 -4 -4 -3 -3
17 16 16 14 13 13 13 12 10 9 9 8 8 7 7 7 6 6 5 5 5 4 2 2 2 1 0 -1 -3 -4 -3 -5 -6 -6 -6 -6 -5 -5 -5 -4 -4 -3 -3
16 16 14 14 13 13 12 10 9 8 8 7 6 6 5 5 5 5 4 3 3 2 1 1 0 -1 -2 -2 -4 -5 -6 -7 -7 -8 -7 -6 -6 -5 -5 -6 -5 -5 -4
15 14 14 13 12 11 9 9 8 8 7 6 5 4 4 4 3 2 1 0 -1 -1 -2 -2 -3 -3 -4 -6 -7 -8 -8 -8 -8 -8 -8 -7 -5 -6 -7 -7 -7 -7 -6
14 13 12 11 9 8 8 7 7 6 5 4 3 2 2 2 3 1 -1 -1 -2 -3 -3 -4 -4 -6 -7 -7 -9 -9 -9 -9 -8 -8 -8 -6 -6 -7 -7 -8 -8 -8 -8